Regional Weather Roundup
Issued by NWS

Home | Current Version | Previous Version | Text Only | Print | Product List | Glossary On
Versions: 1 2 3 4 5 6 7 8 9 10 11 12 13 14 15 16 17 18 19 20 21 22 23 24 25 26 27 28 29 30 31 32 33 34 35 36 37 38 39 40 41 42 43 44 45 46 47 48 49 50
000
ASUS43 KOAX 060610
RWRNE

WEATHER ROUNDUP FOR NEBRASKA
NATIONAL WEATHER SERVICE OMAHA NE
1200 AM CST FRI MAR 06 2015

NOTES: SATELLITE DATA IS BEING USED TO AUGMENT CLOUD COVER ABOVE
       12000 FEET.
       "FAIR" INDICATES FEW OR NO CLOUDS BELOW 12,000 FEET WITH NO
       SIGNIFICANT WEATHER AND/OR OBSTRUCTIONS TO VISIBILITY.

  * THESE STATIONS DO NOT REPORT WEATHER SUCH AS RAIN...SNOW OR FOG.

NEZ001>004-019>022-054>056-060700-
NEBRASKA PANHANDLE

CITY           SKY/WX    TMP DP  RH WIND       PRES   REMARKS
SCOTTSBLUFF    PTCLDY    27  20  75 CALM      30.23S
6HR MIN TEMP:  24; 6HR MAX TEMP:  44;

ALLIANCE       CLEAR     17  13  84 W6        30.20F WCI   9
6HR MIN TEMP:  17; 6HR MAX TEMP:  43;

CHADRON        PTCLDY    29  20  69 SW12      30.19F WCI  19
6HR MIN TEMP:  28; 6HR MAX TEMP:  39;

KIMBALL        PTCLDY    28  20  74 W5        30.22F WCI  22
SIDNEY         CLEAR     28  19  69 W10       30.24F WCI  19
6HR MIN TEMP:  26; 6HR MAX TEMP:  41;

$$

NEZ057>060-069>072-079>082-060700-
SOUTHWEST NEBRASKA

CITY           SKY/WX    TMP DP  RH WIND       PRES   REMARKS
NORTH PLATTE   CLEAR     19  11  70 NW8       30.22F WCI   9
6HR MIN TEMP:  18; 6HR MAX TEMP:  47;

IMPERIAL         N/A     29  14  53 W12       30.25S WCI  19
6HR MIN TEMP:  29; 6HR MAX TEMP:  46;

LEXINGTON      CLEAR     23  13  65 NW8       30.22S WCI  14
MCCOOK         CLEAR     27  16  63 W8        30.25S WCI  19
6HR MIN TEMP:  27; 6HR MAX TEMP:  50;

OGALLALA       CLEAR     24  16  72 CALM      30.23S
$$

NEZ005>010-023>029-035>040-094-060700-
NORTH CENTRAL NEBRASKA

CITY           SKY/WX    TMP DP  RH WIND       PRES   REMARKS
VALENTINE      CLEAR     23  18  81 W7        30.16S WCI  15
6HR MIN TEMP:  21; 6HR MAX TEMP:  43;

AINSWORTH      CLEAR     27  18  67 W6        30.16S WCI  21
BROKEN BOW     CLEAR     27  10  49 NW3       30.19S
6HR MIN TEMP:  20; 6HR MAX TEMP:  42;

O`NEILL        CLEAR     27  13  54 SW9       30.15F WCI  18
ORD            CLEAR     16   6  65 CALM      30.18F
6HR MIN TEMP:  16; 6HR MAX TEMP:  40;

THEDFORD       CLEAR     29  16  57 W8        30.19S WCI  21
$$

NEZ041-046>049-061>064-073>077-083>087-060700-
SOUTH CENTRAL NEBRASKA

CITY           SKY/WX    TMP DP  RH WIND       PRES   REMARKS
GRAND ISLAND   CLEAR     31   7  36 SW15      30.21F WCI  20
6HR MIN TEMP:  29; 6HR MAX TEMP:  38;

AURORA         CLEAR     26   8  46 S10       30.21F WCI  17
HASTINGS       CLEAR     31   5  33 S12       30.20F WCI  22
6HR MIN TEMP:  28; 6HR MAX TEMP:  40;

HEBRON         CLEAR     32  13  45 S15G22    30.26F WCI  22
HOLDREGE       CLEAR     32  12  43 SW9       30.22S WCI  24
KEARNEY *      CLEAR     28  10  47 SW10      30.21S WCI  19
YORK           PTCLDY    27  10  50 S10       30.22F WCI  17
$$

NEZ011>018-030>034-042>045-060700-
NORTHEAST NEBRASKA

CITY           SKY/WX    TMP DP  RH WIND       PRES   REMARKS
NORFOLK        PTCLDY    28   8  43 S20       30.18F WCI  15
6HR MIN TEMP:  27; 6HR MAX TEMP:  34;

ALBION         CLEAR     25   6  45 S6        30.20F WCI  18
BLAIR          CLOUDY    27   9  47 S17       30.27F WCI  14
COLUMBUS *     PTCLDY    28   7  40 S12       30.24F WCI  18
FREMONT        FAIR      27  11  50 SE13      30.27F WCI  16
TEKAMAH        CLOUDY    27  10  49 S13       30.28F WCI  16
6HR MIN TEMP:  22; 6HR MAX TEMP:  31;

WAYNE          CLOUDY    28   9  43 S12       30.21F WCI  18
$$

NEZ050>053-065>068-078-088>093-060700-
SOUTHEAST NEBRASKA

CITY           SKY/WX    TMP DP  RH WIND       PRES   REMARKS
LINCOLN        CLOUDY    27  13  55 S12       30.28F WCI  17
6HR MIN TEMP:  24; 6HR MAX TEMP:  33;

OMAHA EPPLEY   MOCLDY    26   8  46 S15       30.32F WCI  14
6HR MIN TEMP:  23; 6HR MAX TEMP:  30;

BEATRICE       CLEAR     27  15  62 S13       30.29F WCI  16
FALLS CITY     CLEAR     23  11  60 S10       30.37F WCI  12
6HR MIN TEMP:  19; 6HR MAX TEMP:  30;

NEBRASKA CITY  PTCLDY    24   7  48 S16       30.32F WCI  10
PLATTSMOUTH    PTCLDY    25   8  48 S16       30.30F WCI  12
$$

NEZ044-045-051>053-067-060700-
OMAHA AREA

CITY           SKY/WX    TMP DP  RH WIND       PRES   REMARKS
OMAHA EPPLEY   MOCLDY    26   8  46 S15       30.32F WCI  14
6HR MIN TEMP:  23; 6HR MAX TEMP:  30;

BLAIR          CLOUDY    27   9  47 S17       30.27F WCI  14
FREMONT        FAIR      27  11  50 SE13      30.27F WCI  16
MILLARD        MOCLDY    27  10  49 SE10      30.31F WCI  17
OFFUTT AFB     MOCLDY    25   9  51 SE10      30.31F WCI  15
PLATTSMOUTH    PTCLDY    25   8  48 S16       30.30F WCI  12
WAHOO          CLOUDY    25  10  53 S10       30.27F WCI  15
$$


USA.gov is the U.S. government's official web portal to all federal, state and local government web resources and services.